This demonstration page uses our WeatherBlox Daily Observations layout. Learn more.

Left ArrowRight Arrow

Hourly Observations for September 30, 2022

Temp ( °F °C ) Dew Point ( °F °C ) Humidity (%) Winds ( mph kmh ) Pressure ( in mb ) Visibility ( mi km ) Precip ( " mm )
12:53 am 00:53 Mostly Cloudy 48 8.9 44 6.7 86 86 Calm 30.01 1016 10 16 0.00 0.00
1:53 am 01:53 Mostly Cloudy 49 9.4 44 6.7 83 83 WNW 6 9 30.00 1016 10 16 0.00 0.00
2:53 am 02:53 Cloudy with Light Rain 49 9.4 45 7.2 86 86 Calm 29.99 1016 10 16 0.01 0.13
3:53 am 03:53 Cloudy 50 10 44 6.7 80 80 SW 3 6 30.00 1016 10 16 0.01 0.13
4:53 am 04:53 Cloudy with Light Rain 51 10.6 47 8.3 86 86 ESE 6 9 30.01 1016 10 16 0.04 1.02
5:53 am 05:53 Cloudy 51 10.6 47 8.3 86 86 Calm 30.02 1017 10 16 0.01 0.13
6:53 am 06:53 Cloudy 53 11.7 47 8.3 80 80 ESE 9 15 29.98 1015 10 16 0.01 0.13
7:53 am 07:53 Cloudy with Light Rain 54 12.2 47 8.3 77 77 ENE 7 11 30.03 1017 10 16 0.01 0.13
8:53 am 08:53 Cloudy with Light Rain 53 11.7 47 8.3 80 80 E 5 7 30.03 1017 10 16 0.01 0.13
9:53 am 09:53 Cloudy with Light Rain 55 12.8 48 8.9 77 77 NNE 5 7 30.03 1017 10 16 0.01 0.13
10:53 am 10:53 Cloudy with Light Rain 53 11.7 50 10 89 89 WNW 13 20 30.09 1019 8 13 0.00 0.00
11:00 am 11:00 Cloudy with Rain 52 11.1 50 10 93 93 W 10 17 30.02 1017 4 6 0.00 0.00
11:13 am 11:13 Cloudy with Rain 52 11.1 50 10 93 93 W 5 7 30.02 1017 2 3 0.00 0.00
11:24 am 11:24 Cloudy with Light Rain 52 11.1 50 10 93 93 SW 6 9 30.01 1016 5 8 0.00 0.00
11:37 am 11:37 Cloudy with Heavy Rain 53 11.7 50 10 89 89 SSW 6 9 30.00 1016 2 3 0.00 0.00
11:53 am 11:53 Cloudy with Rain 52 11.1 48 8.9 86 86 SW 8 13 30.09 1019 3 5 0.00 0.00
12:03 pm 12:03 Cloudy with Rain 52 11.1 49 9.4 89 89 S 6 9 30.00 1016 3 4 0.00 0.00
12:11 pm 12:11 Cloudy with Rain 52 11.1 48 8.9 86 86 S 8 13 30.00 1016 3 5 0.00 0.00
12:53 pm 12:53 Cloudy with Light Rain 54 12.2 46 7.8 74 74 SSW 9 15 30.06 1018 9 14 0.00 0.00
1:53 pm 13:53 Cloudy 54 12.2 46 7.8 74 74 VRB 5 7 30.05 1018 10 16 0.00 0.00
2:53 pm 14:53 Cloudy with Light Rain 54 12.2 47 8.3 77 77 SE 9 15 30.01 1016 9 14 0.00 0.00
3:53 pm 15:53 Cloudy 54 12.2 46 7.8 74 74 NE 7 11 29.98 1015 10 16 0.00 0.00
4:53 pm 16:53 Cloudy with Light Rain 54 12.2 45 7.2 71 71 SW 13 20 30.03 1017 10 16 0.00 0.00
5:27 pm 17:27 Cloudy with Light Rain 52 11.1 43 6.1 71 71 SE 21 33 29.86 1011 10 16 0.00 0.00
5:41 pm 17:41 Mostly Cloudy 53 11.7 42 5.6 66 66 S 14 22 29.86 1011 10 16 0.00 0.00
5:53 pm 17:53 Mostly Cloudy 52 11.1 42 5.6 69 69 SSE 10 17 29.98 1015 10 16 0.00 0.00
6:53 pm 18:53 Sunny 52 11.1 43 6.1 71 71 ENE 10 17 29.99 1016 10 16 0.00 0.00
7:53 pm 19:53 Cloudy 51 10.6 44 6.7 77 77 NE 7 11 30.03 1017 10 16 0.00 0.00
8:53 pm 20:53 Mostly Clear 48 8.9 41 5 76 76 S 3 6 30.06 1018 10 16 0.00 0.00
9:53 pm 21:53 Mostly Cloudy 50 10 43 6.1 77 77 Calm 30.02 1017 10 16 0.00 0.00
10:53 pm 22:53 Partly Cloudy 49 9.4 44 6.7 83 83 NE 3 6 30.05 1018 10 16 0.00 0.00
11:53 pm 23:53 Clear 49 9.4 42 5.6 77 77 ENE 3 6 30.04 1017 10 16 0.00 0.00

Powered by AerisWeather